Tracking 33159 objects as of 7-Feb-2026
HD Live streaming from Space Station
objects crossing your sky now

WILDFIRE 6

Track WILDFIRE 6 now!
10-day predictions


NORAD ID: 57763
Int'l Code: 2023-133H
Perigee: 948.2 km
Apogee: 956.3 km
Inclination: 81.0 °
Period: 103.9 minutes
Semi major axis: 7323 km
RCS: Unknown
Launch date: September 2, 2023
Source: United States (US)
Launch site: AIR FORCE WESTERN TEST RANGE (AFWTR)
Your satellite tracking list
Your tracking list is empty




NASA's NSSDC Master Catalog

Two Line Element Set (TLE):
1 57763U 23133G   26037.74081614  .00000183  00000-0  15104-3 0  9995
2 57763  80.9967 132.4247 0005556  20.5119 339.6259 13.85312884122950
Source of the keplerian elements: AFSPC